Location: Wald
(31.7579°N, 86.6655°W)
Time: 12:29:38
(UTC+00:00)

USA 215 - Pass Details

Date: 14 July 2020
Orbit: 1102 x 1106 km, 123.0° (Epoch: 31 July)

Event Time Altitude Azimuth Distance (km) Brightness Sun altitude
Rises 03:35:38 0° 42° (NE) 3,919 6.3 -27.4°
Reaches altitude 10° 03:38:07 10° 44° (NE) 2,959 5.6 -27.7°
Maximum altitude 03:44:40 81° 131° (SE) 1,116 3.1 -28.5°
Enters shadow 03:46:27 52° 210° (SSW) 1,342 3.5 -28.7°
